Regional Weather Roundup
Issued by NWS

Home | Current Version | Previous Version | Text Only | Print | Product List | Glossary Off
Versions: 1 2 3 4 5 6 7 8 9 10 11 12 13 14 15 16 17 18 19 20 21 22 23 24 25 26 27 28 29 30 31 32 33 34 35 36 37 38 39 40 41 42 43 44 45 46 47 48 49

000
ASUS45 KBOI 291710
RWRID
WEATHER ROUNDUP FOR IDAHO
NATIONAL WEATHER SERVICE BOISE ID
1000 AM MST THU JAN 29 2015

NOTE: "FAIR" INDICATES FEW OR NO CLOUDS BELOW 12000 FEET
WITH NO SIGNIFICANT WEATHER AND/OR OBSTRUCTIONS TO VISIBILITY

IDZ012-014-291800-
SOUTHWEST IDAHO


CITY           SKY/WX    TMP DP  RH WIND       PRES   REMARKS
BOISE          CLOUDY    36  33  89 CALM      30.44R
CALDWELL       CLOUDY    37  30  75 E8        30.45S WCI  31
MOUNTAIN HOME  CLOUDY    36  34  93 SE5       30.42F WCI  32
$$

IDZ016-017-291800-
SOUTHCENTRAL IDAHO


CITY           SKY/WX    TMP DP  RH WIND       PRES   REMARKS
BURLEY         CLOUDY    37  32  82 E14       30.39F WCI  28
JEROME         CLOUDY    37  30  75 E12       30.40F WCI  29
TWIN FALLS     CLOUDY    37  33  85 NE10      30.40S WCI  30
$$

IDZ019>023-291800-
SOUTHEAST IDAHO


CITY           SKY/WX    TMP DP  RH WIND       PRES   REMARKS
IDAHO FALLS    MOSUNNY   36  31  82 NE8       30.43F WCI  30
POCATELLO      CLOUDY    33  32  96 E3        30.42F FOG
REXBURG        SUNNY     31  28  89 NE3       30.44S
$$

IDZ006-010-011-018-031-032-291800-
CENTRAL IDAHO MOUNTAINS


CITY           SKY/WX    TMP DP  RH WIND       PRES   REMARKS
MCCALL         MOSUNNY   20  20 100 CALM      30.37S
HAILEY         MOSUNNY   28  23  80 NW12      30.40F WCI  18
STANLEY          N/A     15  10  80 E3        30.44S
SALMON         CLOUDY   N/A N/A N/A CALM      30.49F
CHALLIS        CLOUDY    29  23  78 N6        30.45S WCI  23
$$

IDZ002-004-006-007-026-291800-
NORTHERN IDAHO


CITY           SKY/WX    TMP DP  RH WIND       PRES   REMARKS
LEWISTON       FOG       32  32 100 CALM      30.44S VSB 1/2
LOWELL           N/A     34  30  85 CALM      30.51F
COEUR D`ALENE  CLOUDY    34  28  80 NE10      30.43R WCI  26
MULLAN PASS    PTSUNNY   29  20  69 S6        30.32F WCI  23
$$


USA.gov is the U.S. government's official web portal to all federal, state and local government web resources and services.